Regional Weather Roundup
Issued by NWS

Home | Current Version | Previous Version | Text Only | Print | Product List | Glossary On
Versions: 1 2 3 4 5 6 7 8 9 10 11 12 13 14 15 16 17 18 19 20 21 22 23 24 25 26 27 28 29 30 31 32 33 34 35 36 37 38 39 40 41 42 43 44 45 46 47 48 49 50
000
ASUS43 KDMX 221707
RWRIA

WEATHER ROUNDUP FOR IOWA
NATIONAL WEATHER SERVICE DES MOINES IA
1200 PM CDT FRI AUG 22 2014

NOTE: "FAIR" INDICATES FEW OR NO CLOUDS BELOW 12,000 FEET WITH NO
SIGNIFICANT WEATHER AND/OR OBSTRUCTIONS TO VISIBILITY.

* - THESE STATIONS ARE NOT NWS STATIONS...THUS NOT UNDER NWS
QUALITY CONTROL.  THEY ALSO DO NOT REPORT WEATHER SUCH
AS PRECIPITATION OR FOG.

IAZ001>003-012>014-020>022-031>034-043>046-221800-
   NORTHWEST IOWA

CITY           SKY/WX    TMP DP  RH WIND       PRES   REMARKS
CARROLL *      PTSUNNY   86  77  74 VRB3      29.94S HX  97
CHEROKEE *     PTSUNNY   81  75  83 NE6       29.96S HX  86
DENISON *      SUNNY     86  73  66 CALM      29.92F HX  93
LE MARS *      PTSUNNY   82  75  78 N8        29.97R HX  89
ORANGE CITY *  CLOUDY    81  72  74 E8        29.99R HX  84
SHELDON *      CLOUDY    79  73  83 NE12      29.98S HX  82
SIOUX CITY     MOSUNNY   87  74  64 N7        29.94S HX  95
SPENCER        CLOUDY    76  71  85 NE10      29.99R
STORM LAKE *   PTSUNNY   79  79 100 E8        29.98R HX  83
$$

IAZ055>058-069>071-079>083-090>094-221800-
   SOUTHWEST IOWA

CITY           SKY/WX    TMP DP  RH WIND       PRES   REMARKS
ATLANTIC *     MOSUNNY   84  77  79 SW3       29.93S HX  94
AUDUBON *      SUNNY     86  79  79 CALM      29.96S HX  99
CLARINDA *     SUNNY     82  75  78 S7        29.95R HX  89
COUNCIL BLFS * MOSUNNY   86  79  79 VRB3      29.92S HX  99
CRESTON *      SUNNY     82  75  78 CALM      29.95S HX  89
HARLAN  *      SUNNY     84  77  79 SE3       29.97F HX  94
LAMONI         PTSUNNY   84  75  74 SW10      29.95R HX  92
RED OAK *      SUNNY     84  75  74 VRB3      29.92F HX  92
SHENANDOAH *   SUNNY     82  75  78 S7        29.93R HX  89
$$

IAZ047>049-059>061-072>074-084-221800-
   CENTRAL IOWA

CITY           SKY/WX    TMP DP  RH WIND       PRES   REMARKS
AMES           MOSUNNY   84  74  71 CALM      29.94R HX  91
ANKENY *       SUNNY     84  73  70 S7        29.94S HX  91
CHARITON *     SUNNY     84  77  79 VRB7      29.95S HX  94
DES MOINES     PTSUNNY   83  74  74 S7        29.94S HX  89
GRINNELL*      PTSUNNY   84  72  65 CALM      29.96S HX  89
KNOXVILLE *    MOSUNNY   84  75  74 VRB5      29.94S HX  92
MARSHALLTOWN   MOSUNNY   83  73  72 CALM      29.94S HX  89
PELLA *        PTSUNNY   86  77  74 S3        29.96S HX  97
PERRY *          N/A     82  75  78 S8        29.94S HX  89
$$

IAZ004>006-015-016-023>025-035-036-221800-
   NORTH CENTRAL IOWA

CITY           SKY/WX    TMP DP  RH WIND       PRES   REMARKS
ALGONA *       CLOUDY    79  73  83 N10G16    29.98R HX  82
CLARION *      PTSUNNY   84  77  79 CALM      29.95S HX  94
ESTHERVILLE    CLOUDY    74  71  91 NE6       29.99S
FORT DODGE *   CLOUDY    81  75  83 SE3       29.96S HX  86
MASON CITY     CLOUDY    82  73  74 E6        29.98S HX  87
FOREST CITY *  MOSUNNY   81  72  74 NE6       29.98R HX  84
IOWA FALLS *   PTSUNNY   84  75  74 E6        29.97R HX  92
$$

IAZ007>011-017>019-026>030-037>042-050>054-066-221800-
   NORTHEAST IOWA

CITY           SKY/WX    TMP DP  RH WIND       PRES   REMARKS
CEDAR RAPIDS   PTSUNNY   83  73  72 W7        29.95R HX  89
CHARLES CITY * CLOUDY    77  75  94 E3        29.97S FOG
CLINTON *      CLOUDY    73  68  83 W8        29.97F
DECORAH *      CLOUDY    79  75  89 CALM      29.96S HX  82
DUBUQUE        CLOUDY    77  75  93 SE5       29.97S FOG
MONTICELLO *   PTSUNNY   79  77  94 CALM      29.95S FOG     HX  83
OELWEIN *      CLOUDY    81  77  89 S7        29.97R HX  88
WATERLOO       MOSUNNY   84  76  76 VRB5      29.94R HX  93
$$

IAZ064-065-067-068-078-221800-
   EAST CENTRAL IOWA

CITY           SKY/WX    TMP DP  RH WIND       PRES   REMARKS
DAVENPORT      CLOUDY    75  73  93 SE6       29.97F
IOWA CITY      PTSUNNY   82  75  79 SE7       29.97R HX  89
MT. PLEASANT * CLOUDY    81  72  74 SE9       29.98R HX  84
MUSCATINE *    SUNNY     81  75  83 SE8       29.97R HX  86
QUAD CITIES    CLOUDY    75  72  90 CALM      29.97R
$$

IAZ062-063-075>077-085>089-095>099-221800-
   SOUTHEAST IOWA

CITY           SKY/WX    TMP DP  RH WIND       PRES   REMARKS
BURLINGTON     CLOUDY    79  74  84 S9        29.99R HX  82
FAIRFIELD *    SUNNY     81  73  78 S9        29.97S HX  85
FORT MADISON * PTSUNNY   81  77  89 S7        30.00S HX  88
KEOKUK *       PTSUNNY   81  75  83 SE12      29.98S HX  86
OSKALOOSA *      N/A     82  75  78 SW5       29.97R HX  89
CENTERVILLE *  SUNNY     82  77  83 S3        29.98S HX  91
OTTUMWA        MOSUNNY   81  73  76 S6        29.95R HX  86
WASHINGTON *   MOSUNNY   81  77  89 S8        29.97R HX  88
$$

ABBREVIATIONS USED IN REMARKS
   TC - TEMPERATURES IN CELSIUS
  WCI - WIND CHILL INDEX
   HX - HEAT INDEX
  VSB - VISIBILITY
$$




USA.gov is the U.S. government's official web portal to all federal, state and local government web resources and services.